Tracking 19847 objects as of 15-Sep-2019
HD Live streaming from Space Station
objects crossing your sky now

SL-14 DEB

Track SL-14 DEB now!
10-day predictions


NORAD ID: 19232
Int'l Code: 1978-100AB
Perigee: 1,680.0 km
Apogee: 1,994.3 km
Inclination: 82.3 °
Period: 123.3 minutes
Semi major axis: 8208 km
RCS: 0.0463 m2 (small)
Launch date: October 26, 1978
Source: Commonwealth of Independent States (former USSR) (CIS)
Launch site: PLESETSK MISSILE AND SPACE COMPLEX (PKMTR)

Note: This is SATELLITE DEBRIS
aabbcc
Your satellite tracking list
Your tracking list is empty




NASA's NSSDC Master Catalog

Two Line Element Set (TLE):
1 19232U 78100AB  19257.26546912 -.00000051  00000-0 -10063-2 0  9992
2 19232  82.3359 183.7933 0191483 287.0570 231.7454 11.67440621335175
Source of the keplerian elements: AFSPC